{"data":{"norad_id":64944,"intl_designator":"2025-158N","name":"STARLINK-34373","alt_names":[],"object_type":"PAYLOAD","status":"ACTIVE","operator":null,"country":"US","launch_date":"2025-07-27","launch_site_code":"AFWTR","launch_vehicle":null,"mission":null,"orbit_class":"UNKNOWN","rcs_meters":null,"size_class":null,"mass_kg":null,"dimensions":null,"purposes":["comms"],"wikipedia_slug":null,"has_3d_model":false,"image_url":null,"decayed_at":null,"tle_current":{"epoch":"2026-05-25T01:17:30.726240Z","epoch_age_seconds":64299,"freshness":"FRESH","line1":"1 64944U 25158N   26145.05382785  .00004214  00000+0  29582-3 0  9993","line2":"2 64944  97.4522   8.9377 0002041 101.9935 258.1521 15.05669225 46844","mean_motion":15.05669225,"eccentricity":0.0002041,"inclination_deg":97.4522,"raan_deg":8.9377,"arg_perigee_deg":101.9935,"mean_anomaly_deg":258.1521,"bstar":0.00029582,"rev_number":4684,"period_min":95.638535748116,"perigee_km":548.03826293265,"apogee_km":550.86610483751,"semimajor_km":6927.5891838851,"source":"CELESTRAK","updated_at":"2026-05-25T13:38:20.632474Z"}}}